Location: Durham
(54.7770°N, 1.5720°W)
Time: 00:57:26
(UTC+01:00)

ISS - Visible Passes

Search period start: 19 April 2014 00:00
Search period end: 29 April 2014 00:00
Orbit: 414 x 419 km, 51.6° (Epoch: 18 April)

Date Brightness Start Highest point End Pass type
(mag) Time Alt. Az. Time Alt. Az. Time Alt. Az.
19 Apr -1.8 21:01:58 10° W 21:04:54 28° SSW 21:07:49 10° SE visible
20 Apr -0.8 21:51:12 10° WSW 21:52:41 12° SW 21:54:09 10° S visible
21 Apr -1.0 21:02:12 10° WSW 21:04:28 17° SSW 21:06:44 10° S visible
